sat.trackr.live / text

‹ back to catalog

APRIZESAT 9

NORAD 40018 · 2014-033J

PAYLOAD ACTIVE UNKNOWN

§ Identity

Operator
Country
US
Launch date
2014-06-19
Launch site
DLS
Launch vehicle
Mass (kg)
RCS (m²)
0.13

Purposes: tech_demo

External: N2YO · Heavens-Above · Gunter

§ Orbital elements

Epoch: 2026-09-20T02:11:59.195904Z

Period
97.67 min
Inclination
97.9194°
Eccentricity
0.0064670
Mean motion
14.74309538 rev/d
Perigee alt
601.9 km
Apogee alt
692.8 km
Semi-major
7,025.5 km
B*
6.2869e-5
RAAN
34.0465°
Arg perigee
254.9034°
Mean anomaly
104.5014°
Rev number
65,754

§ Raw data

APRIZESAT 91 40018U 14033J   26263.09165736  .00000376  00000+0  62869-4 0  99902 40018  97.9194  34.0465 0064670 254.9034 104.5014 14.74309538657542

JSON: /api/v1/satellites/40018 · /tle

For live sub-satellite position, see the globe view (requires WebGL).

§ Visibility from observer

Set your observer location to see the next 7 days of passes ≥ 10°. The values pass through the URL so the page stays shareable.

No JS? Fill the form by hand. The geolocation button needs JavaScript.

§ Radio — SatNOGS DB

ModeDescriptionDownlinkUplink
GMSK Store and dump 400.552 MHz

1 transmitter · refreshed weekly from db.satnogs.org